GW4396 Weather Reports


Display with metric or nautical units.
time (UTC)temp
F
wind
direction
speed
MPH
gust
MPH
rain 1hr
in
rain 24hr
in
rain mn
in
humidity
%
barometer
mb
20260507114926 78 248 3.0 5.0 0.00 0.00 0.00 75 1006.3
20260507114422 78 102 3.0 3.0 0.00 0.00 0.00 75 1006.2
20260507113920 78 95 2.0 5.0 0.00 0.00 0.00 75 1006.1
20260507113417 77 115 3.0 3.0 0.00 0.00 0.00 75 1006.2
20260507112914 77 33 2.0 3.0 0.00 0.00 0.00 75 1006.3
20260507112412 77 307 3.0 11.0 0.00 0.00 0.00 75 1006.3
20260507111909 77 73 2.0 3.0 0.00 0.00 0.00 75 1006.1
20260507111405 77 59 3.0 5.0 0.00 0.00 0.00 75 1005.8
20260507110902 77 108 5.0 7.0 0.00 0.00 0.00 75 1005.8
20260507110358 77 77 6.0 7.0 0.00 0.00 0.00 75 1005.8
20260507105855 77 103 4.0 8.0 0.00 0.00 0.00 75 1006.0
20260507105351 77 267 4.0 7.0 0.00 0.00 0.00 75 1006.2
20260507104848 77 78 3.0 3.0 0.00 0.00 0.00 75 1005.9
20260507104345 77 120 3.0 5.0 0.00 0.00 0.00 75 1005.9
20260507103841 77 200 3.0 6.0 0.00 0.00 0.00 75 1005.8
20260507103337 77 76 3.0 5.0 0.00 0.00 0.00 76 1006.0
20260507102834 77 97 4.0 8.0 0.00 0.00 0.00 76 1005.8
20260507102331 77 245 4.0 7.0 0.00 0.00 0.00 76 1006.0
20260507101827 77 95 2.0 3.0 0.00 0.00 0.00 76 1005.6
20260507101327 77 64 4.0 5.0 0.00 0.00 0.00 76 1005.5
20260507100824 77 92 2.0 3.0 0.00 0.00 0.00 76 1005.8
20260507100323 77 122 3.0 6.0 0.00 0.00 0.00 76 1005.6
20260507095821 77 101 2.0 3.0 0.00 0.00 0.00 76 1005.7
20260507095317 77 297 2.0 3.0 0.00 0.00 0.00 76 1005.7
20260507094814 77 78 5.0 8.0 0.00 0.00 0.00 76 1005.8
20260507094310 77 140 6.0 8.0 0.00 0.00 0.00 76 1005.8
20260507093807 77 103 3.0 3.0 0.00 0.00 0.00 76 1005.4
20260507093306 77 102 4.0 6.0 0.00 0.00 0.00 76 1005.4
20260507092804 77 301 3.0 5.0 0.00 0.00 0.00 76 1005.8
20260507092259 77 83 1.0 1.0 0.00 0.00 0.00 76 1005.3
20260507091756 77 45 3.0 5.0 0.00 0.00 0.00 76 1005.3
20260507091253 77 96 6.0 7.0 0.00 0.00 0.00 76 1005.4
20260507090753 77 94 1.0 1.0 0.00 0.00 0.00 76 1005.2
20260507090250 77 106 5.0 8.0 0.00 0.00 0.00 77 1005.5
20260507085747 76 70 4.0 6.0 0.00 0.00 0.00 77 1005.4
20260507085244 76 110 3.0 3.0 0.00 0.00 0.00 77 1005.4
20260507084741 77 66 5.0 6.0 0.00 0.00 0.00 77 1005.4
20260507084237 77 101 2.0 2.0 0.00 0.00 0.00 77 1005.2
20260507083735 77 81 2.0 3.0 0.00 0.00 0.00 77 1005.2
20260507083231 77 84 2.0 3.0 0.00 0.00 0.00 77 1005.3
20260507082728 76 101 3.0 6.0 0.00 0.00 0.00 77 1005.5
20260507082223 76 94 4.0 5.0 0.00 0.00 0.00 77 1005.4
20260507081721 76 119 2.0 3.0 0.00 0.00 0.00 78 1005.6
20260507081216 76 88 3.0 5.0 0.00 0.00 0.00 79 1005.4
20260507080713 76 71 4.0 6.0 0.00 0.00 0.00 79 1005.4
20260507080209 76 107 5.0 6.0 0.00 0.00 0.00 79 1005.4
20260507075705 76 99 4.0 6.0 0.00 0.00 0.00 79 1005.3
20260507075201 76 100 4.0 6.0 0.00 0.00 0.00 79 1005.4
20260507074658 76 101 4.0 6.0 0.00 0.00 0.00 79 1005.4
20260507074156 76 84 4.0 6.0 0.00 0.00 0.00 80 1005.7
20260507073652 76 82 3.0 5.0 0.00 0.00 0.00 80 1005.8
20260507073148 76 90 5.0 6.0 0.00 0.00 0.00 79 1005.7
20260507072647 76 96 7.0 10.0 0.00 0.00 0.00 79 1005.5
20260507072143 76 89 1.0 1.0 0.00 0.00 0.00 79 1005.7
20260507071641 76 87 7.0 9.0 0.00 0.00 0.00 79 1005.8
20260507071137 76 95 5.0 6.0 0.00 0.00 0.00 79 1005.9
20260507070635 76 93 6.0 8.0 0.00 0.00 0.00 78 1005.7
20260507070132 76 100 5.0 6.0 0.00 0.00 0.00 78 1005.8
20260507065628 76 85 4.0 6.0 0.00 0.00 0.00 79 1005.6
20260507065125 77 102 3.0 3.0 0.00 0.00 0.00 78 1006.0
20260507064622 77 79 5.0 8.0 0.00 0.00 0.00 78 1005.8
20260507064121 77 107 4.0 5.0 0.00 0.00 0.00 77 1006.0
20260507063618 77 76 4.0 5.0 0.00 0.00 0.00 76 1005.7
20260507063115 78 94 5.0 8.0 0.00 0.00 0.00 76 1006.1
20260507062611 78 85 6.0 9.0 0.00 0.00 0.00 75 1006.2
20260507062109 78 219 4.0 7.0 0.00 0.00 0.00 75 1005.9
20260507061607 78 98 5.0 6.0 0.00 0.00 0.00 75 1006.1
20260507061105 78 105 6.0 7.0 0.00 0.00 0.00 75 1006.2
20260507060602 78 108 4.0 6.0 0.00 0.00 0.00 75 1006.4
20260507060059 78 101 5.0 6.0 0.00 0.00 0.00 76 1006.4
20260507055554 78 91 4.0 5.0 0.00 0.00 0.00 75 1006.3
20260507055050 78 132 2.0 3.0 0.00 0.00 0.00 77 1006.2
20260507054546 78 88 3.0 5.0 0.00 0.00 0.00 76 1006.2
20260507054044 78 83 3.0 5.0 0.00 0.00 0.00 76 1006.6
20260507053541 79 127 2.0 2.0 0.00 0.00 0.00 74 1006.7
20260507053040 79 102 3.0 7.0 0.00 0.00 0.00 74 1006.8
20260507052537 79 85 3.0 3.0 0.00 0.00 0.00 74 1006.7
20260507052034 79 211 3.0 5.0 0.00 0.00 0.00 73 1006.8
20260507051532 80 95 2.0 3.0 0.00 0.00 0.00 73 1006.5
20260507051028 80 88 2.0 3.0 0.00 0.00 0.00 72 1006.9
20260507050525 80 77 1.0 2.0 0.00 0.00 0.00 72 1006.7
20260507050021 80 88 2.0 3.0 0.00 0.00 0.00 72 1006.6
20260507045518 80 111 4.0 7.0 0.00 0.00 0.00 71 1007.0
20260507045015 80 26 2.0 2.0 0.00 0.00 0.00 73 1007.0
20260507044512 80 88 2.0 2.0 0.00 0.00 0.00 73 1007.1
20260507044008 80 148 3.0 7.0 0.00 0.00 0.00 73 1006.9
20260507043505 80 90 2.0 2.0 0.00 0.00 0.00 73 1006.8
20260507043001 80 89 3.0 6.0 0.00 0.00 0.00 72 1007.0
20260507042458 80 92 2.0 3.0 0.00 0.00 0.00 72 1007.0
20260507041953 81 111 2.0 3.0 0.00 0.00 0.00 71 1007.0
20260507041450 81 342 2.0 2.0 0.00 0.00 0.00 70 1007.1
20260507040947 81 90 2.0 3.0 0.00 0.00 0.00 70 1007.3
20260507040443 81 69 4.0 6.0 0.00 0.00 0.00 70 1007.3
20260507035939 81 58 2.0 2.0 0.00 0.00 0.00 71 1007.4
20260507035436 81 89 1.0 1.0 0.00 0.00 0.00 71 1007.0
20260507034933 81 91 1.0 2.0 0.00 0.00 0.00 71 1007.2
20260507034430 81 91 1.0 2.0 0.00 0.00 0.00 71 1007.0
20260507033928 81 94 3.0 3.0 0.00 0.00 0.00 72 1007.0
20260507033425 81 95 6.0 8.0 0.00 0.00 0.00 71 1007.2
20260507032922 81 110 2.0 3.0 0.00 0.00 0.00 71 1007.1
20260507032419 82 122 4.0 5.0 0.00 0.00 0.00 71 1007.4
20260507031915 82 87 2.0 2.0 0.00 0.00 0.00 71 1007.4
20260507031412 82 77 2.0 5.0 0.00 0.00 0.00 70 1007.4
20260507030908 82 74 4.0 8.0 0.00 0.00 0.00 69 1007.3
20260507030406 82 227 6.0 8.0 0.00 0.00 0.00 69 1007.3
20260507025903 82 88 5.0 7.0 0.00 0.00 0.00 69 1007.5
20260507025400 82 134 3.0 5.0 0.00 0.00 0.00 70 1007.6
20260507024858 82 219 3.0 5.0 0.00 0.00 0.00 70 1007.4
20260507024355 81 132 4.0 6.0 0.00 0.00 0.00 71 1007.4
20260507023850 81 143 3.0 3.0 0.00 0.00 0.00 73 1007.4
20260507023348 81 78 3.0 3.0 0.00 0.00 0.00 73 1007.5
20260507022845 81 73 6.0 13.0 0.00 0.00 0.00 73 1007.5
20260507022341 82 82 2.0 3.0 0.00 0.00 0.00 72 1007.6
20260507021837 82 100 3.0 3.0 0.00 0.00 0.00 72 1007.8
20260507021333 81 95 6.0 8.0 0.00 0.00 0.00 73 1007.5
20260507020831 82 266 4.0 7.0 0.00 0.00 0.00 73 1007.4
20260507020327 82 97 6.0 9.0 0.00 0.00 0.00 73 1007.6
20260507015824 82 97 9.0 13.0 0.00 0.00 0.00 72 1007.8
20260507015322 81 88 5.0 6.0 0.00 0.00 0.00 73 1007.9
20260507014819 82 91 1.0 1.0 0.00 0.00 0.00 74 1007.9
20260507014315 81 121 7.0 8.0 0.00 0.00 0.00 74 1008.0
20260507013806 81 120 5.0 6.0 0.00 0.00 0.00 74 1008.0
20260507013303 81 99 4.0 5.0 0.00 0.00 0.00 74 1008.0
20260507012800 82 70 5.0 8.0 0.00 0.00 0.00 74 1008.1
20260507012256 82 96 3.0 5.0 0.00 0.00 0.00 74 1007.9
20260507011754 82 112 5.0 6.0 0.00 0.00 0.00 73 1008.1
20260507011250 82 139 2.0 5.0 0.00 0.00 0.00 73 1008.1
20260507010750 82 97 4.0 6.0 0.00 0.00 0.00 74 1008.2
20260507010246 82 98 5.0 6.0 0.00 0.00 0.00 74 1008.1
20260507005744 82 92 3.0 5.0 0.00 0.00 0.00 74 1008.0
20260507005240 82 101 3.0 5.0 0.00 0.00 0.00 75 1008.3
20260507004736 81 92 6.0 8.0 0.00 0.00 0.00 75 1008.3
20260507004235 81 88 3.0 3.0 0.00 0.00 0.00 75 1008.3
20260507003730 81 88 5.0 7.0 0.00 0.00 0.00 75 1008.5
20260507003226 81 113 3.0 5.0 0.00 0.00 0.00 76 1008.2
20260507002722 82 87 4.0 6.0 0.00 0.00 0.00 75 1008.2
20260507002218 82 98 5.0 8.0 0.00 0.00 0.00 75 1008.3
20260507001715 82 94 5.0 6.0 0.00 0.00 0.00 75 1008.4
20260507001212 81 88 5.0 6.0 0.00 0.00 0.00 76 1008.3
20260507000708 81 108 3.0 5.0 0.00 0.00 0.00 76 1008.4
20260507000205 81 97 3.0 5.0 0.00 0.00 0.00 77 1008.5
20260506235702 81 94 2.0 3.0 0.00 0.00 0.00 77 1008.5
20260506235157 81 128 5.0 6.0 0.00 0.00 0.00 78 1008.4
20260506234654 80 120 4.0 5.0 0.00 0.00 0.00 78 1008.3
20260506234151 80 114 3.0 5.0 0.00 0.00 0.00 78 1008.4
20260506233648 80 102 4.0 5.0 0.00 0.00 0.00 78 1008.6
20260506233145 80 123 3.0 6.0 0.00 0.00 0.00 79 1008.6
20260506232641 80 68 5.0 7.0 0.00 0.00 0.00 79 1008.4
20260506232137 81 59 6.0 8.0 0.00 0.00 0.00 79 1008.7
20260506231634 81 100 5.0 7.0 0.00 0.00 0.00 79 1008.7
20260506231132 81 95 4.0 6.0 0.00 0.00 0.00 78 1008.6
20260506230629 82 82 3.0 3.0 0.00 0.00 0.00 77 1008.7
20260506230126 82 99 1.0 2.0 0.00 0.00 0.00 76 1008.9
20260506225622 82 86 3.0 3.0 0.00 0.00 0.00 75 1008.5
20260506225119 83 85 3.0 3.0 0.00 0.00 0.00 75 1008.8
20260506224616 83 106 4.0 6.0 0.00 0.00 0.00 74 1008.4
20260506224112 83 121 2.0 3.0 0.00 0.00 0.00 73 1008.6
20260506223608 83 85 3.0 5.0 0.00 0.00 0.00 73 1009.0
20260506223104 83 89 3.0 3.0 0.00 0.00 0.00 74 1008.7
20260506222601 83 87 0.0 0.0 0.00 0.00 0.00 74 1008.8
20260506222058 83 95 3.0 3.0 0.00 0.00 0.00 74 1008.6
20260506221555 83 105 1.0 2.0 0.00 0.00 0.00 74 1008.6
20260506221053 83 85 3.0 5.0 0.00 0.00 0.00 74 1008.8
20260506220549 83 105 2.0 2.0 0.00 0.00 0.00 73 1008.6
20260506220045 83 98 0.0 0.0 0.00 0.00 0.00 74 1008.7
20260506215542 83 111 1.0 1.0 0.00 0.00 0.00 74 1008.4
20260506215038 84 97 2.0 2.0 0.00 0.00 0.00 73 1008.6
20260506214535 83 101 0.0 1.0 0.00 0.00 0.00 73 1008.6
20260506214032 83 91 3.0 5.0 0.00 0.00 0.00 74 1008.8
20260506213530 84 91 0.0 1.0 0.00 0.00 0.00 73 1008.8
20260506213027 84 29 1.0 2.0 0.00 0.00 0.00 73 1008.5
20260506212523 84 106 1.0 1.0 0.00 0.00 0.00 73 1008.8
20260506212018 84 89 0.0 1.0 0.00 0.00 0.00 73 1008.8
20260506211514 84 88 2.0 2.0 0.00 0.00 0.00 73 1008.7
20260506211013 84 131 0.0 0.0 0.00 0.00 0.00 73 1008.9
20260506210509 84 63 1.0 2.0 0.00 0.00 0.00 73 1008.8
20260506210006 84 113 0.0 0.0 0.00 0.00 0.00 73 1009.0
20260506205502 84 92 0.0 0.0 0.00 0.00 0.00 72 1008.9
20260506204957 85 88 0.0 0.0 0.00 0.00 0.00 72 1009.0
20260506204456 85 91 0.0 0.0 0.00 0.00 0.00 70 1009.2
20260506203952 86 85 0.0 0.0 0.00 0.00 0.00 70 1008.9
20260506203450 86 87 0.0 0.0 0.00 0.00 0.00 69 1009.0
20260506202946 86 96 0.0 0.0 0.00 0.00 0.00 69 1009.1
20260506202444 86 67 1.0 2.0 0.00 0.00 0.00 68 1009.2
20260506201940 87 102 0.0 0.0 0.00 0.00 0.00 70 1009.0
20260506201438 87 95 0.0 0.0 0.00 0.00 0.00 71 1009.0
20260506200934 88 90 1.0 2.0 0.00 0.00 0.00 68 1008.9
20260506200430 88 89 0.0 0.0 0.00 0.00 0.00 68 1008.8
20260506195927 88 229 1.0 1.0 0.00 0.00 0.00 65 1009.2
20260506195424 88 10 2.0 3.0 0.00 0.00 0.00 64 1009.5
20260506194921 89 17 4.0 6.0 0.00 0.00 0.00 63 1009.1
20260506194418 89 65 2.0 3.0 0.00 0.00 0.00 64 1009.1
20260506193915 89 102 1.0 2.0 0.00 0.00 0.00 63 1009.2
20260506193412 90 97 0.0 1.0 0.00 0.00 0.00 65 1009.2
20260506192908 91 304 1.0 1.0 0.00 0.00 0.00 62 1009.3
20260506192405 92 77 0.0 0.0 0.00 0.00 0.00 62 1009.5
20260506191902 93 96 1.0 1.0 0.00 0.00 0.00 62 1009.5
20260506191358 94 69 1.0 2.0 0.00 0.00 0.00 59 1009.2
20260506190855 93 9 2.0 5.0 0.00 0.00 0.00 59 1009.3
20260506190352 94 93 1.0 2.0 0.00 0.00 0.00 59 1009.6
20260506185849 92 315 5.0 10.0 0.00 0.00 0.00 60 1009.5
20260506185346 92 90 2.0 2.0 0.00 0.00 0.00 62 1009.7
20260506184843 92 137 2.0 2.0 0.00 0.00 0.00 59 1009.9
20260506184340 92 102 2.0 5.0 0.00 0.00 0.00 61 1009.8
20260506183837 93 108 2.0 3.0 0.00 0.00 0.00 61 1009.8
20260506183332 93 276 1.0 3.0 0.00 0.00 0.00 59 1010.0
20260506182830 92 85 2.0 3.0 0.00 0.00 0.00 59 1009.9
20260506182327 92 122 3.0 5.0 0.00 0.00 0.00 59 1010.2
20260506181824 93 44 1.0 2.0 0.00 0.00 0.00 60 1009.8
20260506181322 92 331 2.0 3.0 0.00 0.00 0.00 58 1010.1
20260506180819 92 331 5.0 7.0 0.00 0.00 0.00 58 1009.9
20260506180315 93 119 4.0 8.0 0.00 0.00 0.00 58 1010.0
20260506175811 93 357 6.0 9.0 0.00 0.00 0.00 58 1010.3
20260506175308 93 78 5.0 7.0 0.00 0.00 0.00 59 1010.1
20260506174806 93 97 3.0 6.0 0.00 0.00 0.00 59 1010.4
20260506174303 93 90 3.0 6.0 0.00 0.00 0.00 60 1010.5
20260506173800 93 119 3.0 3.0 0.00 0.00 0.00 61 1010.6
20260506173257 93 31 2.0 6.0 0.00 0.00 0.00 59 1010.4
20260506172754 93 59 3.0 3.0 0.00 0.00 0.00 60 1010.9
20260506172250 93 158 2.0 2.0 0.00 0.00 0.00 59 1010.9
20260506171748 92 81 0.0 0.0 0.00 0.00 0.00 62 1011.0
20260506171245 93 330 6.0 9.0 0.00 0.00 0.00 59 1010.7
20260506170743 93 112 2.0 3.0 0.00 0.00 0.00 60 1010.8
20260506170239 92 79 0.0 1.0 0.00 0.00 0.00 58 1011.1
20260506165738 92 172 4.0 7.0 0.00 0.00 0.00 60 1011.3
20260506165234 92 12 3.0 6.0 0.00 0.00 0.00 60 1011.4
20260506164731 91 103 3.0 5.0 0.00 0.00 0.00 61 1011.2
20260506164228 91 80 4.0 6.0 0.00 0.00 0.00 61 1011.7
20260506163725 91 55 3.0 5.0 0.00 0.00 0.00 62 1011.6
20260506163220 92 61 2.0 3.0 0.00 0.00 0.00 62 1011.8
20260506162716 92 285 2.0 3.0 0.00 0.00 0.00 61 1011.9
20260506162214 91 77 1.0 1.0 0.00 0.00 0.00 63 1012.0
20260506161711 91 71 3.0 5.0 0.00 0.00 0.00 62 1012.0
20260506161208 91 88 1.0 2.0 0.00 0.00 0.00 64 1012.1
20260506160706 91 49 1.0 1.0 0.00 0.00 0.00 63 1012.3
20260506160202 92 109 4.0 6.0 0.00 0.00 0.00 63 1012.3
20260506155700 91 85 2.0 2.0 0.00 0.00 0.00 62 1012.5
20260506155157 93 84 2.0 3.0 0.00 0.00 0.00 61 1012.5
20260506153259 91 348 1.0 1.0 0.00 0.00 0.00 64 1013.0
20260506152756 92 314 3.0 5.0 0.00 0.00 0.00 62 1013.0
20260506152253 89 69 2.0 3.0 0.00 0.00 0.00 65 1013.0
20260506151752 90 279 2.0 2.0 0.00 0.00 0.00 67 1012.8
20260506151249 89 312 1.0 2.0 0.00 0.00 0.00 65 1013.0
20260506150745 90 54 0.0 1.0 0.00 0.00 0.00 66 1013.5
20260506150243 90 92 2.0 3.0 0.00 0.00 0.00 66 1013.2
20260506145739 90 310 3.0 6.0 0.00 0.00 0.00 64 1013.3
20260506145235 89 306 2.0 3.0 0.00 0.00 0.00 65 1013.4
20260506144733 89 104 3.0 5.0 0.00 0.00 0.00 66 1013.3
20260506144230 89 79 4.0 5.0 0.00 0.00 0.00 66 1013.6
20260506143727 89 142 3.0 5.0 0.00 0.00 0.00 66 1013.6
20260506143225 89 85 6.0 8.0 0.00 0.00 0.00 65 1013.7
20260506142724 88 83 5.0 6.0 0.00 0.00 0.00 68 1014.0
20260506142221 87 99 5.0 6.0 0.00 0.00 0.00 68 1013.8
20260506141719 87 133 3.0 6.0 0.00 0.00 0.00 69 1013.9
20260506141217 86 5 2.0 3.0 0.00 0.00 0.00 69 1014.2
20260506140714 86 103 1.0 2.0 0.00 0.00 0.00 72 1014.1
20260506140211 85 82 2.0 2.0 0.00 0.00 0.00 72 1014.0
20260506135708 85 102 3.0 5.0 0.00 0.00 0.00 73 1014.0
20260506135204 84 89 4.0 6.0 0.00 0.00 0.00 74 1014.4
20260506134701 84 81 3.0 5.0 0.00 0.00 0.00 74 1014.4
20260506134157 83 113 6.0 8.0 0.00 0.00 0.00 74 1014.5
20260506133654 83 86 4.0 5.0 0.00 0.00 0.00 75 1014.5
20260506133151 82 107 9.0 13.0 0.00 0.00 0.00 76 1014.7
20260506132648 82 101 2.0 3.0 0.00 0.00 0.00 77 1014.8
20260506132145 81 94 7.0 9.0 0.00 0.00 0.00 76 1014.6
20260506131643 81 106 2.0 6.0 0.00 0.00 0.00 77 1014.6
20260506131139 80 106 5.0 7.0 0.00 0.00 0.00 78 1014.7
20260506130636 80 105 4.0 5.0 0.00 0.00 0.00 78 1014.7
20260506130133 80 110 3.0 5.0 0.00 0.00 0.00 79 1014.9
20260506125631 80 76 3.0 3.0 0.00 0.00 0.00 79 1014.5
20260506125129 79 110 4.0 6.0 0.00 0.00 0.00 79 1015.0
20260506124626 79 83 3.0 3.0 0.00 0.00 0.00 78 1014.8
20260506124124 79 107 4.0 6.0 0.00 0.00 0.00 78 1014.9
20260506123621 80 95 3.0 3.0 0.00 0.00 0.00 77 1014.9
20260506123120 80 73 6.0 8.0 0.00 0.00 0.00 77 1014.9
20260506122616 80 120 3.0 6.0 0.00 0.00 0.00 77 1014.7
20260506122114 79 84 6.0 6.0 0.00 0.00 0.00 79 1014.9
20260506121612 78 110 3.0 5.0 0.00 0.00 0.00 80 1014.7
20260506121108 78 94 4.0 5.0 0.00 0.00 0.00 81 1014.8
20260506120606 77 107 3.0 3.0 0.00 0.00 0.00 82 1014.6
20260506115601 77 122 4.0 5.0 0.00 0.00 0.00 82 1014.7
20260506115059 76 77 3.0 3.0 0.00 0.00 0.00 83 1015.0